This demonstration page uses our WeatherBlox Daily Observations layout. Learn more.

Left ArrowRight Arrow

34.02893, -84.19858

Hourly Observations for August 9, 2015

Temp ( °F °C ) Dew Point ( °F °C ) Humidity (%) Winds ( mph kmh ) Pressure ( in mb ) Visibility ( mi km ) Precip ( " mm )
12:53 am 00:53 Clear 77 25 69 20.6 77 77 Calm 29.92 1013 10 16 0.00 0.00
1:53 am 01:53 Clear 75 23.9 69 20.6 82 82 Calm 29.91 1013 10 16 0.00 0.00
2:53 am 02:53 Clear 74 23.3 70 21.1 88 88 Calm 29.91 1013 10 16 0.00 0.00
3:53 am 03:53 Clear 72 22.2 69 20.6 91 91 Calm 29.90 1013 10 16 0.00 0.00
4:53 am 04:53 Clear 71 21.7 69 20.6 94 94 Calm 29.91 1013 10 16 0.00 0.00
5:53 am 05:53 Clear 71 21.7 69 20.6 94 94 Calm 29.92 1013 10 16 0.00 0.00
6:53 am 06:53 Mostly Clear 73 22.8 69 20.6 87 87 Calm 29.93 1014 10 16 0.00 0.00
7:53 am 07:53 Sunny 74 23.3 70 21.1 88 88 VRB 3 6 29.95 1014 10 16 0.00 0.00
8:53 am 08:53 Sunny 79 26.1 70 21.1 74 74 Calm 29.97 1015 10 16 0.00 0.00
9:53 am 09:53 Sunny 83 28.3 72 22.2 70 70 ESE 3 6 29.96 1015 10 16 0.00 0.00
10:53 am 10:53 Sunny 86 30 71 21.7 61 61 S 9 15 29.97 1015 10 16 0.00 0.00
11:53 am 11:53 Sunny 88 31.1 71 21.7 57 57 S 6 9 29.97 1015 10 16 0.00 0.00
12:53 pm 12:53 Mostly Sunny 90 32.2 71 21.7 54 54 VRB 3 6 29.97 1015 10 16 0.00 0.00
1:53 pm 13:53 Sunny 90 32.2 69 20.6 50 50 VRB 7 11 29.96 1015 10 16 0.00 0.00
2:53 pm 14:53 Partly Cloudy 91 32.8 68 20 47 47 WSW 5 7 29.94 1014 10 16 0.00 0.00
3:53 pm 15:53 Cloudy 89 31.7 69 20.6 52 52 SSW 8 13 29.93 1014 10 16 0.00 0.00
4:53 pm 16:53 Mostly Sunny 89 31.7 69 20.6 52 52 SSE 8 13 29.92 1013 10 16 0.00 0.00
5:53 pm 17:53 Mostly Sunny 90 32.2 69 20.6 50 50 SSE 8 13 29.91 1013 10 16 0.00 0.00
6:53 pm 18:53 Sunny 89 31.7 71 21.7 55 55 SE 5 7 29.91 1013 10 16 0.00 0.00
7:53 pm 19:53 Sunny 87 30.6 72 22.2 61 61 SSE 3 6 29.91 1013 10 16 0.00 0.00
8:53 pm 20:53 Clear 84 28.9 73 22.8 70 70 SSE 5 7 29.92 1013 10 16 0.00 0.00
9:53 pm 21:53 Clear 82 27.8 72 22.2 72 72 SSE 5 7 29.93 1013 10 16 0.00 0.00
10:53 pm 22:53 Mostly Clear 81 27.2 72 22.2 74 74 Calm 29.93 1014 10 16 0.00 0.00
11:53 pm 23:53 Clear 79 26.1 72 22.2 79 79 Calm 29.93 1014 10 16 0.00 0.00

Powered by AerisWeather